QPF
0.00 0.00 0.00 0.00 0.00 0.00 0.00 0.00 0.00 0.00 0.00 0.00 0.00 0.00 0.00 0.00 0.00 0.01 0.01 0.02 0.03 0.04 0.05 0.06 0.07 0.09 0.11 0.21 0.28 0.27 0.23 0.21 0.22 0.27 0.30 0.30 0.29 0.28 0.24 0.22 0.20 0.15 0.11 0.09
0.00 0.00 0.00 0.00 0.00 0.00 0.00 0.00 0.00 0.00 0.00 0.00 0.00 0.00 0.00 0.00 0.00 0.01 0.01 0.01 0.03 0.05 0.07 0.07 0.09 0.08 0.08 0.12 0.15 0.17 0.18 0.24 0.31 0.38 0.44 0.41 0.43 0.44 0.35 0.25 0.23 0.20 0.14 0.10
0.00 0.00 0.00 0.00 0.00 0.00 0.00 0.00 0.00 0.00 0.00 0.00 0.00 0.00 0.00 0.00 0.00 0.00 0.01 0.02 0.03 0.05 0.05 0.05 0.06 0.08 0.09 0.15 0.17 0.16 0.22 0.29 0.36 0.38 0.40 0.35 0.32 0.35 0.33 0.23 0.15 0.12 0.10 0.08
0.00 0.00 0.00 0.00 0.00 0.00 0.00 0.00 0.00 0.00 0.00 0.00 0.00 0.00 0.00 0.00 0.01 0.01 0.01 0.02 0.02 0.03 0.03 0.04 0.05 0.07 0.11 0.18 0.28 0.27 0.29 0.29 0.30 0.28 0.22 0.16 0.11 0.10 0.12 0.14 0.13 0.12 0.11 0.08
0.00 0.00 0.00 0.00 0.00 0.00 0.00 0.00 0.00 0.00 0.00 0.00 0.00 0.00 0.00 0.00 0.01 0.01 0.02 0.02 0.02 0.02 0.02 0.03 0.07 0.13 0.14 0.13 0.21 0.23 0.27 0.36 0.37 0.29 0.20 0.14 0.07 0.06 0.07 0.12 0.13 0.12 0.09 0.07
0.00 0.00 0.00 0.00 0.00 0.00 0.00 0.00 0.00 0.00 0.00 0.00 0.00 0.00 0.00 0.00 0.00 0.01 0.01 0.01 0.01 0.01 0.02 0.04 0.07 0.11 0.12 0.11 0.18 0.22 0.28 0.35 0.37 0.27 0.19 0.13 0.09 0.08 0.07 0.07 0.08 0.08 0.07 0.07
0.00 0.00 0.00 0.00 0.00 0.00 0.00 0.00 0.00 0.00 0.00 0.00 0.00 0.00 0.00 0.00 0.00 0.00 0.01 0.01 0.01 0.01 0.02 0.03 0.06 0.08 0.12 0.14 0.15 0.17 0.19 0.18 0.23 0.23 0.17 0.12 0.09 0.10 0.08 0.06 0.06 0.05 0.05 0.05
0.00 0.00 0.00 0.00 0.00 0.00 0.00 0.00 0.00 0.00 0.00 0.00 0.00 0.00 0.00 0.00 0.00 0.00 0.00 0.01 0.02 0.02 0.03 0.04 0.07 0.12 0.11 0.10 0.10 0.12 0.13 0.11 0.11 0.13 0.13 0.12 0.09 0.09 0.10 0.09 0.08 0.06 0.05 0.04
0.00 0.00 0.00 0.00 0.00 0.00 0.00 0.00 0.00 0.00 0.00 0.00 0.00 0.00 0.00 0.00 0.00 0.00 0.00 0.00 0.01 0.02 0.02 0.05 0.07 0.11 0.10 0.09 0.08 0.08 0.08 0.08 0.09 0.11 0.13 0.14 0.10 0.08 0.08 0.08 0.08 0.07 0.07 0.06
0.00 0.00 0.00 0.00 0.00 0.00 0.00 0.00 0.00 0.00 0.00 0.00 0.00 0.00 0.00 0.00 0.00 0.00 0.00 0.01 0.01 0.01 0.03 0.04 0.05 0.06 0.06 0.06 0.05 0.04 0.05 0.06 0.07 0.11 0.14 0.12 0.10 0.09 0.08 0.06 0.05 0.06 0.06 0.06
0.00 0.00 0.00 0.00 0.00 0.00 0.00 0.00 0.00 0.00 0.00 0.00 0.00 0.00 0.00 0.00 0.00 0.00 0.00 0.01 0.01 0.01 0.01 0.03 0.03 0.03 0.04 0.04 0.03 0.02 0.02 0.03 0.04 0.07 0.13 0.15 0.13 0.11 0.10 0.08 0.06 0.05 0.04 0.03
0.00 0.00 0.00 0.00 0.00 0.00 0.00 0.00 0.00 0.00 0.00 0.00 0.00 0.00 0.00 0.00 0.00 0.00 0.00 0.00 0.01 0.01 0.02 0.02 0.02 0.03 0.03 0.03 0.02 0.02 0.02 0.02 0.03 0.04 0.08 0.13 0.13 0.12 0.12 0.09 0.07 0.07 0.05 0.05
0.00 0.00 0.00 0.00 0.00 0.00 0.00 0.00 0.00 0.00 0.00 0.00 0.00 0.00 0.00 0.00 0.00 0.00 0.00 0.00 0.01 0.02 0.04 0.03 0.02 0.02 0.03 0.03 0.03 0.02 0.02 0.02 0.02 0.03 0.06 0.09 0.11 0.11 0.13 0.13 0.09 0.07 0.06 0.06
0.00 0.00 0.00 0.00 0.00 0.00 0.00 0.00 0.00 0.00 0.00 0.00 0.00 0.00 0.00 0.00 0.00 0.00 0.00 0.01 0.02 0.02 0.04 0.03 0.02 0.03 0.03 0.02 0.02 0.01 0.01 0.01 0.01 0.02 0.04 0.07 0.09 0.11 0.11 0.13 0.11 0.09 0.08 0.07
0.00 0.00 0.00 0.00 0.00 0.00 0.00 0.00 0.00 0.00 0.00 0.00 0.00 0.00 0.00 0.00 0.00 0.00 0.01 0.01 0.02 0.02 0.02 0.02 0.01 0.03 0.03 0.03 0.03 0.01 0.01 0.01 0.01 0.02 0.02 0.05 0.09 0.13 0.12 0.11 0.10 0.11 0.11 0.09
0.00 0.00 0.00 0.00 0.00 0.00 0.01 0.01 0.00 0.00 0.00 0.00 0.00 0.00 0.00 0.00 0.01 0.01 0.01 0.01 0.01 0.02 0.02 0.02 0.02 0.03 0.05 0.03 0.04 0.02 0.02 0.02 0.01 0.01 0.03 0.04 0.07 0.11 0.11 0.11 0.11 0.12 0.12 0.11
0.00 0.00 0.00 0.00 0.00 0.01 0.01 0.01 0.00 0.00 0.00 0.00 0.00 0.01 0.01 0.01 0.01 0.02 0.01 0.01 0.01 0.02 0.02 0.02 0.02 0.04 0.07 0.06 0.05 0.03 0.03 0.03 0.03 0.02 0.03 0.03 0.07 0.12 0.12 0.11 0.10 0.10 0.10 0.10
0.01 0.00 0.00 0.00 0.00 0.01 0.01 0.01 0.01 0.01 0.01 0.00 0.00 0.01 0.01 0.02 0.02 0.02 0.02 0.03 0.02 0.02 0.02 0.03 0.04 0.05 0.08 0.10 0.09 0.09 0.06 0.04 0.04 0.03 0.03 0.03 0.04 0.07 0.08 0.08 0.09 0.11 0.12 0.12
0.01 0.01 0.00 0.00 0.01 0.01 0.01 0.02 0.01 0.01 0.01 0.01 0.01 0.00 0.01 0.02 0.02 0.02 0.02 0.03 0.03 0.02 0.03 0.05 0.09 0.08 0.11 0.14 0.14 0.12 0.12 0.09 0.06 0.05 0.03 0.03 0.04 0.06 0.07 0.08 0.10 0.12 0.13 0.12
0.01 0.01 0.01 0.01 0.01 0.01 0.01 0.01 0.01 0.01 0.01 0.01 0.01 0.01 0.01 0.02 0.03 0.03 0.02 0.03 0.03 0.03 0.03 0.05 0.08 0.10 0.11 0.11 0.10 0.10 0.11 0.12 0.11 0.07 0.05 0.04 0.05 0.06 0.07 0.08 0.10 0.12 0.13 0.14
0.01 0.01 0.01 0.01 0.01 0.01 0.01 0.01 0.01 0.01 0.01 0.01 0.01 0.02 0.01 0.02 0.02 0.02 0.02 0.01 0.02 0.02 0.02 0.03 0.05 0.05 0.07 0.10 0.12 0.12 0.09 0.09 0.11 0.10 0.07 0.07 0.08 0.08 0.10 0.10 0.11 0.13 0.12 0.10
0.01 0.01 0.01 0.01 0.01 0.01 0.01 0.01 0.01 0.01 0.01 0.01 0.02 0.03 0.03 0.02 0.02 0.01 0.01 0.02 0.02 0.01 0.02 0.02 0.03 0.04 0.06 0.09 0.13 0.16 0.14 0.13 0.13 0.12 0.09 0.09 0.09 0.09 0.11 0.10 0.09 0.09 0.08 0.08
0.01 0.00 0.01 0.01 0.01 0.01 0.01 0.01 0.01 0.01 0.02 0.02 0.02 0.02 0.03 0.03 0.02 0.02 0.02 0.03 0.03 0.02 0.03 0.03 0.04 0.05 0.07 0.10 0.14 0.19 0.18 0.15 0.14 0.15 0.16 0.15 0.16 0.14 0.13 0.13 0.12 0.12 0.11 0.09
0.01 0.01 0.01 0.01 0.02 0.02 0.02 0.03 0.03 0.02 0.02 0.02 0.02 0.02 0.02 0.03 0.03 0.04 0.03 0.03 0.04 0.04 0.06 0.08 0.07 0.07 0.10 0.12 0.17 0.18 0.17 0.15 0.16 0.15 0.16 0.19 0.21 0.20 0.16 0.14 0.14 0.15 0.15 0.14
0.02 0.02 0.01 0.01 0.02 0.03 0.03 0.03 0.03 0.02 0.02 0.01 0.02 0.03 0.03 0.03 0.04 0.04 0.03 0.02 0.03 0.04 0.06 0.11 0.10 0.09 0.11 0.13 0.14 0.13 0.15 0.16 0.19 0.18 0.15 0.13 0.14 0.12 0.13 0.12 0.11 0.12 0.13 0.13
0.03 0.02 0.02 0.02 0.02 0.03 0.03 0.04 0.03 0.02 0.01 0.01 0.02 0.03 0.03 0.04 0.04 0.03 0.04 0.03 0.03 0.03 0.04 0.06 0.06 0.06 0.08 0.11 0.14 0.14 0.13 0.14 0.14 0.15 0.13 0.11 0.10 0.08 0.07 0.07 0.07 0.07 0.08 0.08
MSLP
1010.41 1011.19 1011.76 1012.12 1012.29 1012.31 1012.25 1012.13 1011.98 1011.79 1011.57 1011.29 1010.94 1010.53 1010.09 1009.63 1009.20 1008.84 1008.55 1008.35 1008.25 1008.22 1008.26 1008.37 1008.54 1008.79 1009.14 1009.61 1010.20 1010.90 1011.68 1012.48 1013.25 1013.91 1014.43 1014.78 1014.97 1015.04 1015.05 1015.06 1015.14 1015.32 1015.63 1016.06
1010.79 1011.43 1011.84 1012.06 1012.13 1012.13 1012.11 1012.11 1012.12 1012.12 1012.07 1011.93 1011.68 1011.31 1010.84 1010.32 1009.79 1009.32 1008.93 1008.65 1008.48 1008.40 1008.38 1008.43 1008.53 1008.69 1008.95 1009.33 1009.85 1010.50 1011.27 1012.10 1012.92 1013.65 1014.24 1014.65 1014.88 1014.95 1014.93 1014.89 1014.90 1015.04 1015.31 1015.73
1010.86 1011.35 1011.61 1011.72 1011.73 1011.75 1011.83 1011.98 1012.19 1012.41 1012.56 1012.57 1012.42 1012.08 1011.58 1010.97 1010.34 1009.75 1009.25 1008.88 1008.63 1008.49 1008.44 1008.43 1008.47 1008.57 1008.74 1009.03 1009.47 1010.06 1010.80 1011.62 1012.47 1013.26 1013.92 1014.40 1014.68 1014.77 1014.76 1014.70 1014.69 1014.78 1015.03 1015.44
1010.65 1011.00 1011.14 1011.17 1011.18 1011.27 1011.49 1011.84 1012.28 1012.73 1013.08 1013.25 1013.18 1012.85 1012.30 1011.59 1010.83 1010.10 1009.48 1009.00 1008.68 1008.49 1008.39 1008.35 1008.36 1008.40 1008.51 1008.72 1009.08 1009.60 1010.29 1011.09 1011.94 1012.76 1013.47 1014.01 1014.36 1014.51 1014.53 1014.49 1014.47 1014.55 1014.78 1015.17
1010.26 1010.47 1010.52 1010.52 1010.58 1010.79 1011.19 1011.77 1012.45 1013.13 1013.67 1013.97 1013.95 1013.61 1012.98 1012.14 1011.23 1010.35 1009.59 1009.00 1008.60 1008.37 1008.25 1008.21 1008.19 1008.21 1008.29 1008.44 1008.73 1009.17 1009.79 1010.54 1011.37 1012.19 1012.93 1013.52 1013.93 1014.14 1014.22 1014.22 1014.23 1014.32 1014.55 1014.92
1009.78 1009.88 1009.88 1009.90 1010.05 1010.40 1011.00 1011.81 1012.72 1013.59 1014.29 1014.67 1014.68 1014.29 1013.56 1012.58 1011.51 1010.47 1009.57 1008.88 1008.42 1008.15 1008.04 1008.01 1008.01 1008.04 1008.10 1008.22 1008.45 1008.81 1009.35 1010.02 1010.79 1011.58 1012.32 1012.94 1013.40 1013.68 1013.82 1013.89 1013.94 1014.06 1014.29 1014.66
1009.33 1009.34 1009.33 1009.39 1009.64 1010.16 1010.94 1011.94 1013.04 1014.06 1014.86 1015.29 1015.28 1014.82 1013.98 1012.86 1011.64 1010.45 1009.44 1008.66 1008.15 1007.88 1007.78 1007.79 1007.85 1007.91 1007.98 1008.08 1008.26 1008.55 1008.99 1009.56 1010.25 1010.97 1011.68 1012.29 1012.78 1013.12 1013.34 1013.47 1013.59 1013.74 1013.99 1014.36
1008.93 1008.90 1008.89 1009.02 1009.38 1010.04 1010.97 1012.12 1013.33 1014.44 1015.28 1015.71 1015.65 1015.11 1014.16 1012.93 1011.59 1010.30 1009.20 1008.38 1007.85 1007.59 1007.53 1007.60 1007.72 1007.83 1007.92 1008.02 1008.16 1008.38 1008.72 1009.18 1009.75 1010.39 1011.03 1011.61 1012.11 1012.49 1012.76 1012.96 1013.14 1013.35 1013.62 1013.99
1008.59 1008.55 1008.57 1008.77 1009.23 1009.99 1011.02 1012.24 1013.50 1014.62 1015.44 1015.82 1015.71 1015.10 1014.07 1012.77 1011.37 1010.04 1008.91 1008.08 1007.57 1007.34 1007.33 1007.46 1007.64 1007.80 1007.93 1008.02 1008.13 1008.28 1008.52 1008.87 1009.32 1009.84 1010.39 1010.93 1011.40 1011.80 1012.11 1012.37 1012.61 1012.87 1013.18 1013.56
1008.26 1008.24 1008.32 1008.59 1009.12 1009.94 1011.01 1012.22 1013.45 1014.52 1015.27 1015.58 1015.41 1014.76 1013.71 1012.41 1011.02 1009.72 1008.63 1007.83 1007.36 1007.18 1007.22 1007.39 1007.61 1007.81 1007.96 1008.05 1008.13 1008.22 1008.37 1008.60 1008.93 1009.34 1009.79 1010.25 1010.69 1011.08 1011.42 1011.73 1012.02 1012.33 1012.68 1013.09
1007.89 1007.92 1008.08 1008.42 1009.01 1009.84 1010.88 1012.03 1013.16 1014.11 1014.76 1015.00 1014.79 1014.14 1013.14 1011.91 1010.62 1009.42 1008.42 1007.70 1007.29 1007.15 1007.21 1007.41 1007.64 1007.84 1007.99 1008.07 1008.12 1008.15 1008.23 1008.37 1008.59 1008.89 1009.24 1009.63 1010.01 1010.38 1010.73 1011.06 1011.40 1011.75 1012.15 1012.58
1007.44 1007.57 1007.82 1008.24 1008.85 1009.67 1010.64 1011.67 1012.66 1013.48 1014.01 1014.18 1013.96 1013.36 1012.47 1011.39 1010.27 1009.23 1008.37 1007.75 1007.40 1007.28 1007.34 1007.51 1007.71 1007.88 1008.00 1008.05 1008.06 1008.05 1008.08 1008.15 1008.29 1008.50 1008.77 1009.08 1009.41 1009.74 1010.08 1010.43 1010.79 1011.19 1011.62 1012.10
1006.95 1007.20 1007.56 1008.05 1008.69 1009.46 1010.33 1011.22 1012.05 1012.71 1013.13 1013.25 1013.05 1012.56 1011.84 1010.96 1010.06 1009.22 1008.52 1008.01 1007.71 1007.59 1007.60 1007.70 1007.82 1007.91 1007.97 1007.97 1007.95 1007.92 1007.90 1007.94 1008.03 1008.17 1008.38 1008.62 1008.90 1009.20 1009.52 1009.87 1010.25 1010.68 1011.15 1011.68
1006.48 1006.88 1007.35 1007.92 1008.56 1009.28 1010.03 1010.76 1011.42 1011.93 1012.25 1012.35 1012.21 1011.85 1011.33 1010.70 1010.04 1009.42 1008.89 1008.49 1008.21 1008.06 1007.99 1007.97 1007.97 1007.95 1007.92 1007.86 1007.80 1007.75 1007.73 1007.75 1007.81 1007.93 1008.09 1008.28 1008.51 1008.77 1009.07 1009.41 1009.81 1010.26 1010.77 1011.34
1006.14 1006.67 1007.26 1007.88 1008.53 1009.17 1009.80 1010.37 1010.86 1011.24 1011.48 1011.57 1011.51 1011.31 1011.00 1010.63 1010.22 1009.82 1009.46 1009.14 1008.87 1008.66 1008.47 1008.31 1008.15 1008.00 1007.86 1007.74 1007.64 1007.58 1007.57 1007.60 1007.67 1007.77 1007.91 1008.07 1008.25 1008.48 1008.75 1009.08 1009.48 1009.95 1010.50 1011.10
1006.02 1006.66 1007.33 1007.98 1008.60 1009.17 1009.67 1010.08 1010.42 1010.67 1010.84 1010.94 1010.96 1010.93 1010.84 1010.71 1010.55 1010.36 1010.14 1009.89 1009.62 1009.32 1009.01 1008.69 1008.38 1008.09 1007.84 1007.65 1007.52 1007.46 1007.46 1007.51 1007.60 1007.71 1007.83 1007.97 1008.13 1008.33 1008.57 1008.89 1009.28 1009.77 1010.34 1010.98
1006.16 1006.87 1007.57 1008.22 1008.78 1009.25 1009.61 1009.87 1010.06 1010.21 1010.32 1010.43 1010.54 1010.66 1010.78 1010.87 1010.93 1010.92 1010.82 1010.64 1010.36 1009.99 1009.56 1009.09 1008.64 1008.22 1007.87 1007.61 1007.46 1007.40 1007.42 1007.50 1007.61 1007.74 1007.86 1007.99 1008.13 1008.29 1008.52 1008.82 1009.22 1009.71 1010.31 1010.97
1006.56 1007.27 1007.94 1008.53 1009.01 1009.34 1009.56 1009.67 1009.73 1009.77 1009.85 1009.97 1010.16 1010.42 1010.71 1011.00 1011.24 1011.39 1011.41 1011.28 1011.00 1010.58 1010.06 1009.49 1008.92 1008.40 1007.97 1007.67 1007.49 1007.43 1007.47 1007.57 1007.71 1007.84 1007.97 1008.09 1008.21 1008.37 1008.58 1008.87 1009.27 1009.78 1010.38 1011.07
1007.12 1007.77 1008.36 1008.84 1009.18 1009.37 1009.44 1009.41 1009.35 1009.31 1009.34 1009.49 1009.75 1010.12 1010.55 1011.01 1011.41 1011.70 1011.82 1011.76 1011.50 1011.06 1010.49 1009.85 1009.21 1008.63 1008.15 1007.81 1007.62 1007.56 1007.61 1007.72 1007.86 1008.01 1008.14 1008.25 1008.37 1008.52 1008.73 1009.03 1009.44 1009.96 1010.57 1011.27
1007.74 1008.27 1008.72 1009.05 1009.23 1009.27 1009.19 1009.03 1008.87 1008.77 1008.78 1008.94 1009.26 1009.73 1010.29 1010.87 1011.41 1011.81 1012.04 1012.05 1011.83 1011.41 1010.84 1010.18 1009.52 1008.90 1008.41 1008.05 1007.84 1007.77 1007.81 1007.93 1008.07 1008.21 1008.34 1008.46 1008.58 1008.74 1008.97 1009.29 1009.71 1010.25 1010.88 1011.57
1008.28 1008.65 1008.94 1009.10 1009.12 1009.01 1008.80 1008.54 1008.31 1008.17 1008.18 1008.37 1008.75 1009.29 1009.94 1010.63 1011.27 1011.78 1012.10 1012.18 1012.03 1011.66 1011.13 1010.49 1009.84 1009.23 1008.73 1008.37 1008.15 1008.06 1008.08 1008.18 1008.30 1008.44 1008.56 1008.69 1008.83 1009.02 1009.27 1009.63 1010.08 1010.64 1011.29 1011.98
1008.67 1008.87 1008.99 1008.98 1008.86 1008.62 1008.32 1008.00 1007.74 1007.59 1007.62 1007.85 1008.28 1008.89 1009.61 1010.38 1011.09 1011.69 1012.08 1012.25 1012.17 1011.87 1011.40 1010.82 1010.20 1009.62 1009.13 1008.76 1008.53 1008.42 1008.41 1008.47 1008.57 1008.69 1008.81 1008.96 1009.13 1009.35 1009.65 1010.05 1010.55 1011.14 1011.80 1012.50
1008.88 1008.92 1008.88 1008.75 1008.51 1008.20 1007.85 1007.52 1007.26 1007.15 1007.22 1007.50 1007.99 1008.64 1009.42 1010.23 1011.00 1011.64 1012.10 1012.33 1012.32 1012.10 1011.70 1011.19 1010.63 1010.09 1009.61 1009.24 1008.98 1008.84 1008.79 1008.81 1008.88 1008.98 1009.11 1009.27 1009.48 1009.75 1010.11 1010.57 1011.12 1011.74 1012.42 1013.12
1008.92 1008.84 1008.69 1008.47 1008.18 1007.84 1007.49 1007.20 1007.00 1006.95 1007.09 1007.43 1007.96 1008.66 1009.46 1010.29 1011.08 1011.75 1012.24 1012.52 1012.57 1012.41 1012.09 1011.64 1011.14 1010.64 1010.18 1009.80 1009.52 1009.34 1009.24 1009.22 1009.26 1009.34 1009.47 1009.66 1009.90 1010.23 1010.65 1011.17 1011.77 1012.43 1013.13 1013.82
1008.85 1008.71 1008.50 1008.24 1007.95 1007.64 1007.35 1007.13 1007.02 1007.06 1007.28 1007.68 1008.26 1008.98 1009.78 1010.61 1011.39 1012.05 1012.55 1012.86 1012.95 1012.85 1012.58 1012.20 1011.74 1011.27 1010.83 1010.45 1010.14 1009.92 1009.78 1009.72 1009.73 1009.79 1009.93 1010.14 1010.43 1010.82 1011.29 1011.86 1012.50 1013.19 1013.90 1014.59
1008.77 1008.59 1008.38 1008.14 1007.89 1007.65 1007.45 1007.34 1007.34 1007.48 1007.79 1008.25 1008.86 1009.59 1010.38 1011.18 1011.93 1012.57 1013.05 1013.35 1013.47 1013.41 1013.18 1012.85 1012.44 1012.00 1011.57 1011.18 1010.85 1010.60 1010.42 1010.33 1010.31 1010.37 1010.51 1010.75 1011.08 1011.51 1012.03 1012.64 1013.31 1014.01 1014.72 1015.41
Thickness
5771 5757 5749 5754 5759 5760 5760 5757 5754 5765 5782 5780 5775 5776 5786 5793 5793 5791 5790 5790 5788 5788 5789 5787 5783 5778 5773 5768 5763 5758 5755 5752 5749 5744 5740 5737 5736 5736 5736 5736 5736 5735 5735 5734
5752 5748 5761 5765 5763 5761 5757 5752 5753 5765 5778 5777 5771 5772 5782 5788 5789 5790 5789 5788 5788 5785 5785 5785 5783 5779 5774 5769 5763 5758 5755 5752 5749 5745 5741 5738 5736 5734 5734 5735 5735 5736 5735 5734
5746 5756 5767 5762 5757 5753 5752 5750 5753 5757 5766 5771 5767 5762 5772 5781 5786 5787 5788 5789 5788 5786 5783 5782 5779 5776 5773 5768 5764 5760 5755 5751 5747 5744 5739 5736 5733 5732 5730 5732 5733 5735 5735 5735
5747 5760 5763 5758 5755 5754 5744 5762 5761 5758 5748 5739 5752 5734 5759 5769 5773 5779 5782 5783 5784 5785 5784 5780 5777 5774 5770 5768 5765 5760 5755 5749 5746 5744 5739 5735 5733 5732 5733 5734 5734 5734 5734 5734
5744 5756 5756 5753 5759 5760 5756 5767 5762 5757 5746 5736 5740 5732 5744 5761 5765 5772 5777 5780 5782 5783 5782 5779 5777 5774 5771 5767 5762 5758 5753 5747 5745 5743 5741 5737 5735 5735 5735 5734 5732 5732 5732 5733
5750 5763 5764 5763 5770 5770 5767 5757 5746 5734 5728 5718 5732 5728 5733 5750 5763 5771 5776 5779 5780 5780 5779 5777 5775 5772 5768 5764 5760 5755 5750 5746 5744 5742 5741 5738 5735 5734 5733 5732 5731 5730 5731 5732
5740 5752 5765 5771 5761 5764 5756 5730 5709 5710 5701 5708 5729 5727 5733 5763 5772 5774 5775 5776 5778 5778 5776 5773 5770 5767 5764 5759 5757 5753 5748 5745 5743 5741 5740 5739 5737 5734 5733 5733 5731 5730 5729 5730
5719 5725 5754 5764 5759 5750 5745 5734 5707 5700 5699 5706 5723 5722 5745 5769 5775 5777 5778 5777 5776 5775 5773 5771 5769 5766 5762 5758 5755 5751 5748 5745 5744 5742 5740 5739 5738 5735 5734 5733 5732 5731 5730 5731
5716 5723 5757 5768 5770 5759 5738 5732 5735 5711 5707 5704 5712 5727 5749 5769 5771 5772 5773 5773 5772 5772 5772 5769 5767 5764 5761 5758 5755 5753 5749 5746 5744 5743 5741 5738 5737 5735 5734 5733 5732 5731 5731 5730
5731 5726 5748 5761 5765 5759 5753 5737 5718 5707 5694 5695 5711 5719 5730 5754 5760 5766 5767 5767 5769 5770 5769 5768 5766 5764 5762 5759 5756 5753 5750 5747 5745 5743 5741 5739 5737 5735 5734 5732 5731 5730 5730 5729
5736 5726 5734 5744 5742 5739 5738 5732 5719 5706 5707 5694 5696 5714 5752 5756 5761 5761 5764 5766 5767 5767 5767 5766 5765 5764 5762 5759 5756 5753 5750 5747 5745 5743 5741 5739 5736 5734 5733 5730 5730 5729 5729 5728
5732 5718 5713 5729 5747 5754 5747 5736 5723 5712 5705 5702 5701 5718 5761 5761 5762 5762 5763 5765 5766 5765 5765 5765 5764 5762 5759 5756 5754 5752 5749 5746 5744 5742 5740 5738 5736 5734 5731 5729 5729 5729 5728 5728
5730 5713 5702 5709 5724 5738 5739 5736 5730 5719 5705 5696 5700 5723 5755 5757 5758 5760 5762 5764 5764 5763 5762 5762 5760 5758 5756 5754 5753 5751 5748 5745 5743 5741 5738 5736 5733 5732 5730 5728 5728 5728 5728 5727
5736 5712 5707 5703 5711 5726 5731 5733 5729 5721 5705 5702 5713 5729 5745 5747 5750 5754 5758 5760 5761 5761 5760 5759 5757 5756 5755 5753 5751 5749 5747 5745 5742 5739 5736 5733 5732 5730 5729 5728 5727 5727 5726 5725
5729 5711 5715 5721 5729 5731 5732 5732 5730 5728 5723 5717 5725 5729 5739 5743 5747 5751 5754 5756 5757 5756 5756 5756 5756 5754 5753 5751 5749 5747 5745 5743 5740 5737 5734 5731 5730 5729 5727 5725 5725 5724 5723 5722
5715 5710 5713 5715 5723 5727 5724 5727 5729 5729 5728 5728 5730 5730 5740 5743 5746 5747 5749 5750 5751 5751 5752 5752 5752 5752 5750 5749 5747 5745 5742 5740 5738 5734 5732 5730 5728 5726 5724 5722 5721 5720 5719 5718
5701 5703 5698 5697 5712 5717 5706 5716 5721 5724 5726 5727 5724 5730 5736 5736 5738 5739 5742 5744 5745 5747 5748 5748 5748 5748 5747 5745 5744 5741 5739 5737 5734 5731 5729 5728 5726 5723 5720 5719 5716 5715 5713 5712
5695 5689 5683 5686 5698 5686 5702 5722 5724 5720 5721 5726 5727 5729 5731 5731 5732 5734 5737 5738 5739 5741 5742 5743 5744 5744 5744 5743 5741 5738 5736 5734 5731 5728 5726 5724 5722 5720 5717 5714 5712 5709 5707 5705
5691 5686 5676 5673 5677 5685 5702 5713 5714 5712 5711 5720 5721 5723 5725 5728 5728 5726 5730 5732 5732 5734 5736 5737 5739 5740 5740 5738 5736 5734 5731 5729 5727 5724 5722 5720 5718 5715 5712 5709 5707 5704 5701 5699
5680 5680 5672 5669 5672 5670 5693 5710 5716 5711 5702 5716 5717 5716 5718 5721 5713 5714 5721 5723 5725 5728 5730 5731 5733 5734 5733 5732 5731 5728 5725 5723 5721 5720 5718 5717 5714 5711 5708 5705 5702 5699 5697 5694
5663 5663 5663 5664 5667 5675 5694 5703 5709 5691 5697 5711 5711 5711 5711 5710 5709 5711 5713 5714 5716 5719 5722 5724 5724 5724 5723 5724 5724 5721 5718 5716 5715 5714 5712 5710 5708 5705 5702 5699 5696 5694 5691 5689
5652 5653 5653 5654 5658 5667 5689 5694 5691 5692 5700 5703 5704 5704 5703 5703 5704 5704 5704 5706 5707 5710 5712 5713 5713 5713 5714 5716 5716 5713 5710 5709 5709 5707 5704 5702 5699 5698 5695 5692 5689 5686 5684 5681
5646 5650 5650 5654 5659 5670 5678 5683 5687 5691 5692 5694 5696 5697 5697 5696 5695 5695 5695 5696 5697 5699 5700 5702 5703 5703 5703 5704 5705 5702 5700 5701 5700 5697 5694 5692 5689 5686 5685 5683 5680 5677 5675 5673
5643 5647 5648 5651 5659 5665 5670 5675 5679 5684 5685 5688 5689 5689 5690 5688 5687 5685 5686 5686 5687 5687 5689 5691 5692 5691 5690 5691 5692 5692 5691 5691 5689 5686 5683 5681 5678 5675 5673 5671 5670 5667 5664 5661
5639 5641 5642 5646 5653 5658 5662 5666 5670 5674 5677 5678 5679 5680 5680 5680 5677 5676 5675 5675 5675 5676 5677 5679 5679 5679 5678 5679 5679 5680 5680 5679 5676 5674 5671 5669 5666 5663 5660 5655 5652 5652 5649 5649
5632 5635 5638 5642 5649 5651 5653 5657 5662 5664 5665 5667 5669 5668 5668 5669 5668 5667 5665 5664 5664 5664 5665 5666 5666 5666 5666 5666 5666 5667 5667 5667 5665 5661 5659 5656 5653 5651 5648 5644 5638 5634 5634 5632